Location: Chimay
(50.0486°N, 4.3171°E)
Time: 06:04:48
(UTC+00:00)

Cosmos 1378 - Pass Details

Date: 08 August 2020
Orbit: 491 x 502 km, 82.5° (Epoch: 26 September)

Event Time Altitude Azimuth Distance (km) Brightness Sun altitude
Rises 23:06:18 0° 350° (N) 2,611 8.2 -23.5°
Reaches altitude 10° 23:08:26 10° 351° (N) 1,720 6.9 -23.6°
Enters shadow 23:11:41 64° 4° (N) 559 3.5 -23.7°
